| time (UTC) | temp F | wind direction | speed MPH | gust MPH | rain 1hr in | rain 24hr in | rain mn in | humidity % | barometer mb |
| 20260831012016 | 78 | 0.0 | 0.0 | 0.00 | 0.03 | 0.03 | 93 | 1019.1 | |
| 20260831011016 | 78 | 0.0 | 0.0 | 0.00 | 0.03 | 0.03 | 93 | 1019.0 | |
| 20260831010017 | 78 | 0.0 | 0.0 | 0.00 | 0.03 | 0.03 | 92 | 1018.9 | |
| 20260831005016 | 78 | 0.0 | 0.0 | 0.00 | 0.03 | 0.03 | 92 | 1018.7 | |
| 20260831004017 | 79 | 0.0 | 0.0 | 0.00 | 0.03 | 0.03 | 92 | 1018.7 | |
| 20260831003016 | 79 | 0.0 | 0.0 | 0.00 | 0.03 | 0.03 | 91 | 1018.5 | |
| 20260831002016 | 79 | 0.0 | 0.0 | 0.00 | 0.03 | 0.03 | 90 | 1018.5 | |
| 20260831001016 | 80 | 0.0 | 0.0 | 0.00 | 0.04 | 0.03 | 90 | 1018.4 | |
| 20260831000057 | 80 | 0.0 | 0.0 | 0.00 | 0.05 | 0.03 | 89 | 1018.4 | |
| 20260830235016 | 81 | 0.0 | 0.0 | 0.00 | 0.06 | 0.03 | 87 | 1018.2 | |
| 20260830234016 | 81 | 0.0 | 0.0 | 0.00 | 0.06 | 0.03 | 86 | 1018.2 | |
| 20260830233017 | 82 | 0.0 | 0.0 | 0.00 | 0.06 | 0.03 | 85 | 1018.2 | |
| 20260830232036 | 82 | 0.0 | 0.0 | 0.00 | 0.06 | 0.03 | 84 | 1018.3 | |
| 20260830231016 | 83 | 0.0 | 0.0 | 0.00 | 0.06 | 0.03 | 82 | 1018.4 | |
| 20260830230016 | 83 | 0.0 | 0.0 | 0.00 | 0.06 | 0.03 | 81 | 1018.4 | |
| 20260830225016 | 83 | 0.0 | 1.0 | 0.00 | 0.06 | 0.03 | 79 | 1018.4 | |
| 20260830224016 | 84 | 0.0 | 1.0 | 0.00 | 0.06 | 0.03 | 79 | 1018.5 | |
| 20260830223016 | 85 | 135 | 1.0 | 2.0 | 0.00 | 0.06 | 0.03 | 77 | 1018.5 |
| 20260830222038 | 86 | 23 | 1.0 | 2.0 | 0.00 | 0.06 | 0.03 | 75 | 1018.4 |
| 20260830221018 | 86 | 0.0 | 1.0 | 0.00 | 0.06 | 0.03 | 76 | 1018.5 | |
| 20260830220018 | 86 | 0.0 | 0.0 | 0.00 | 0.06 | 0.03 | 76 | 1018.5 | |
| 20260830215019 | 86 | 0.0 | 0.0 | 0.00 | 0.06 | 0.03 | 76 | 1018.5 | |
| 20260830214018 | 86 | 0.0 | 1.0 | 0.00 | 0.06 | 0.03 | 75 | 1018.4 | |
| 20260830213019 | 86 | 90 | 2.0 | 3.0 | 0.00 | 0.06 | 0.03 | 73 | 1018.5 |
| 20260830212016 | 86 | 0.0 | 2.0 | 0.00 | 0.06 | 0.03 | 73 | 1018.5 | |
| 20260830211017 | 87 | 158 | 3.0 | 7.0 | 0.00 | 0.06 | 0.03 | 70 | 1018.5 |
| 20260830210018 | 87 | 135 | 2.0 | 3.0 | 0.00 | 0.06 | 0.03 | 73 | 1018.5 |
| 20260830205018 | 87 | 45 | 1.0 | 2.0 | 0.00 | 0.06 | 0.03 | 74 | 1018.6 |
| 20260830204018 | 89 | 90 | 2.0 | 5.0 | 0.00 | 0.06 | 0.03 | 71 | 1018.5 |
| 20260830203018 | 89 | 0.0 | 1.0 | 0.00 | 0.06 | 0.03 | 68 | 1018.6 | |
| 20260830202038 | 88 | 113 | 2.0 | 4.0 | 0.00 | 0.06 | 0.03 | 71 | 1018.7 |
| 20260830201017 | 88 | 23 | 1.0 | 1.0 | 0.00 | 0.06 | 0.03 | 69 | 1018.5 |
| 20260830200017 | 89 | 68 | 1.0 | 2.0 | 0.00 | 0.06 | 0.03 | 67 | 1018.5 |
| 20260830195018 | 88 | 135 | 1.0 | 2.0 | 0.00 | 0.06 | 0.03 | 71 | 1018.8 |
| 20260830194018 | 88 | 0.0 | 1.0 | 0.00 | 0.06 | 0.03 | 71 | 1018.9 | |
| 20260830193019 | 88 | 135 | 1.0 | 2.0 | 0.00 | 0.06 | 0.03 | 72 | 1019.0 |
| 20260830192018 | 87 | 135 | 1.0 | 3.0 | 0.00 | 0.06 | 0.03 | 74 | 1019.2 |
| 20260830191017 | 88 | 203 | 1.0 | 2.0 | 0.00 | 0.06 | 0.03 | 74 | 1019.3 |
| 20260830190017 | 87 | 23 | 2.0 | 4.0 | 0.00 | 0.06 | 0.03 | 75 | 1019.5 |
| 20260830185018 | 87 | 315 | 1.0 | 3.0 | 0.00 | 0.06 | 0.03 | 74 | 1019.5 |
| 20260830184038 | 86 | 158 | 1.0 | 2.0 | 0.00 | 0.06 | 0.03 | 76 | 1019.7 |
| 20260830183018 | 87 | 180 | 2.0 | 4.0 | 0.00 | 0.07 | 0.03 | 77 | 1019.9 |
| 20260830182017 | 86 | 23 | 1.0 | 2.0 | 0.00 | 0.12 | 0.03 | 79 | 1019.9 |
| 20260830181017 | 85 | 0 | 1.0 | 3.0 | 0.00 | 0.17 | 0.03 | 79 | 1019.9 |
| 20260830180018 | 83 | 0 | 1.0 | 3.0 | 0.00 | 0.19 | 0.03 | 84 | 1020.1 |
| 20260830175016 | 83 | 68 | 2.0 | 4.0 | 0.00 | 0.31 | 0.03 | 83 | 1020.1 |
| 20260830174018 | 83 | 0.0 | 1.0 | 0.00 | 0.32 | 0.03 | 86 | 1020.1 | |
| 20260830173017 | 83 | 0.0 | 2.0 | 0.00 | 0.32 | 0.03 | 86 | 1020.1 | |
| 20260830172039 | 83 | 45 | 1.0 | 2.0 | 0.00 | 0.32 | 0.03 | 85 | 1020.0 |
| 20260830171018 | 82 | 0 | 1.0 | 1.0 | 0.00 | 0.32 | 0.03 | 86 | 1020.1 |
| 20260830170018 | 82 | 203 | 1.0 | 3.0 | 0.00 | 0.32 | 0.03 | 85 | 1020.2 |
| 20260830165017 | 82 | 0 | 1.0 | 2.0 | 0.00 | 0.32 | 0.03 | 86 | 1020.5 |
| 20260830164017 | 81 | 0.0 | 1.0 | 0.00 | 0.32 | 0.03 | 88 | 1020.6 | |
| 20260830163018 | 81 | 68 | 1.0 | 1.0 | 0.00 | 0.32 | 0.03 | 88 | 1020.8 |
| 20260830162018 | 80 | 0 | 1.0 | 2.0 | 0.01 | 0.32 | 0.03 | 91 | 1021.2 |
| 20260830161017 | 79 | 0.0 | 2.0 | 0.01 | 0.32 | 0.03 | 93 | 1021.4 | |
| 20260830160017 | 79 | 0 | 1.0 | 2.0 | 0.02 | 0.32 | 0.03 | 93 | 1021.5 |
| 20260830155017 | 79 | 0 | 1.0 | 2.0 | 0.02 | 0.32 | 0.03 | 93 | 1021.5 |
| 20260830154017 | 79 | 0.0 | 0.0 | 0.02 | 0.32 | 0.03 | 94 | 1021.7 | |
| 20260830153038 | 79 | 0.0 | 1.0 | 0.02 | 0.32 | 0.03 | 94 | 1021.6 | |
| 20260830152018 | 78 | 0.0 | 1.0 | 0.01 | 0.31 | 0.02 | 94 | 1021.7 | |
| 20260830151018 | 78 | 225 | 1.0 | 2.0 | 0.01 | 0.31 | 0.02 | 94 | 1021.8 |
| 20260830150018 | 78 | 0.0 | 0.0 | 0.00 | 0.30 | 0.01 | 94 | 1021.8 | |
| 20260830145017 | 78 | 0.0 | 0.0 | 0.00 | 0.30 | 0.01 | 94 | 1021.7 | |
| 20260830144034 | 78 | 0.0 | 0.0 | 0.00 | 0.30 | 0.01 | 94 | 1021.9 | |
| 20260830143217 | 78 | 0.0 | 0.0 | 0.00 | 0.30 | 0.01 | 94 | 1021.7 | |
| 20260830142218 | 78 | 0.0 | 0.0 | 0.00 | 0.30 | 0.01 | 94 | 1021.6 | |
| 20260830141257 | 77 | 0.0 | 1.0 | 0.00 | 0.30 | 0.01 | 94 | 1021.5 | |
| 20260830140218 | 77 | 0.0 | 0.0 | 0.00 | 0.31 | 0.01 | 94 | 1021.4 | |
| 20260830135217 | 78 | 0.0 | 0.0 | 0.00 | 0.31 | 0.01 | 94 | 1021.2 | |
| 20260830134219 | 78 | 0.0 | 1.0 | 0.01 | 0.31 | 0.01 | 94 | 1021.2 | |
| 20260830133218 | 77 | 0.0 | 1.0 | 0.01 | 0.31 | 0.01 | 94 | 1021.1 | |
| 20260830132219 | 77 | 0.0 | 0.0 | 0.01 | 0.31 | 0.01 | 94 | 1021.2 | |
| 20260830131218 | 77 | 45 | 1.0 | 2.0 | 0.01 | 0.31 | 0.01 | 94 | 1021.1 |
| 20260830130217 | 77 | 338 | 1.0 | 2.0 | 0.01 | 0.31 | 0.01 | 94 | 1020.9 |
| 20260830125218 | 77 | 0.0 | 1.0 | 0.01 | 0.31 | 0.01 | 96 | 1020.4 | |
| 20260830124217 | 76 | 0 | 2.0 | 3.0 | 0.00 | 0.30 | 0.00 | 96 | 1020.5 |
| 20260830123238 | 76 | 23 | 1.0 | 2.0 | 0.00 | 0.30 | 0.00 | 96 | 1020.2 |
| 20260830122258 | 76 | 0.0 | 1.0 | 0.00 | 0.30 | 0.00 | 97 | 1020.3 | |
| 20260830121217 | 76 | 0.0 | 0.0 | 0.00 | 0.30 | 0.00 | 97 | 1020.1 | |
| 20260830120217 | 75 | 0.0 | 0.0 | 0.00 | 0.30 | 0.00 | 97 | 1020.1 | |
| 20260830115217 | 75 | 0.0 | 1.0 | 0.00 | 0.30 | 0.00 | 97 | 1019.9 | |
| 20260830114217 | 75 | 0.0 | 1.0 | 0.00 | 0.30 | 0.00 | 97 | 1019.8 | |
| 20260830113218 | 75 | 0.0 | 0.0 | 0.00 | 0.30 | 0.00 | 97 | 1019.8 | |
| 20260830112218 | 74 | 0.0 | 1.0 | 0.00 | 0.30 | 0.00 | 97 | 1019.8 | |
| 20260830111218 | 74 | 0.0 | 0.0 | 0.00 | 0.30 | 0.00 | 97 | 1019.8 | |
| 20260830110219 | 74 | 0.0 | 0.0 | 0.00 | 0.31 | 0.00 | 97 | 1019.8 | |
| 20260830105218 | 74 | 0.0 | 0.0 | 0.00 | 0.31 | 0.00 | 97 | 1019.8 | |
| 20260830104237 | 74 | 0.0 | 0.0 | 0.00 | 0.31 | 0.00 | 97 | 1019.8 | |
| 20260830103218 | 74 | 0.0 | 1.0 | 0.00 | 0.32 | 0.00 | 97 | 1019.6 | |
| 20260830102217 | 74 | 0.0 | 0.0 | 0.00 | 0.32 | 0.00 | 97 | 1019.6 | |
| 20260830101218 | 74 | 0.0 | 1.0 | 0.00 | 0.32 | 0.00 | 97 | 1019.3 | |
| 20260830100218 | 74 | 0.0 | 0.0 | 0.00 | 0.32 | 0.00 | 97 | 1019.2 | |
| 20260830095217 | 74 | 0.0 | 1.0 | 0.00 | 0.32 | 0.00 | 97 | 1019.0 | |
| 20260830094217 | 74 | 0.0 | 1.0 | 0.00 | 0.32 | 0.00 | 97 | 1018.9 | |
| 20260830093217 | 74 | 0 | 1.0 | 1.0 | 0.00 | 0.32 | 0.00 | 97 | 1018.9 |
| 20260830092218 | 74 | 0.0 | 0.0 | 0.00 | 0.32 | 0.00 | 97 | 1018.8 | |
| 20260830091217 | 74 | 0.0 | 1.0 | 0.00 | 0.32 | 0.00 | 97 | 1018.8 | |
| 20260830090217 | 74 | 0.0 | 1.0 | 0.00 | 0.32 | 0.00 | 97 | 1018.9 | |
| 20260830085237 | 74 | 0.0 | 0.0 | 0.00 | 0.32 | 0.00 | 97 | 1018.9 | |
| 20260830084217 | 74 | 0.0 | 0.0 | 0.00 | 0.32 | 0.00 | 97 | 1018.9 | |
| 20260830083217 | 74 | 0.0 | 0.0 | 0.00 | 0.32 | 0.00 | 97 | 1018.8 | |
| 20260830082217 | 74 | 0.0 | 0.0 | 0.00 | 0.32 | 0.00 | 97 | 1018.8 | |
| 20260830081237 | 74 | 0.0 | 0.0 | 0.00 | 0.32 | 0.00 | 96 | 1018.8 | |
| 20260830080218 | 74 | 0.0 | 0.0 | 0.00 | 0.32 | 0.00 | 96 | 1018.7 | |
| 20260830075217 | 74 | 0.0 | 0.0 | 0.00 | 0.32 | 0.00 | 96 | 1018.8 | |
| 20260830074217 | 74 | 0.0 | 0.0 | 0.00 | 0.32 | 0.00 | 96 | 1018.8 | |
| 20260830073237 | 74 | 0.0 | 0.0 | 0.00 | 0.32 | 0.00 | 96 | 1018.9 | |
| 20260830072217 | 74 | 0.0 | 2.0 | 0.00 | 0.32 | 0.00 | 96 | 1019.0 | |
| 20260830071217 | 74 | 0.0 | 0.0 | 0.00 | 0.32 | 0.00 | 96 | 1019.0 | |
| 20260830070217 | 74 | 0.0 | 0.0 | 0.00 | 0.32 | 0.00 | 96 | 1019.0 | |
| 20260830065217 | 74 | 0.0 | 1.0 | 0.00 | 0.32 | 0.00 | 96 | 1019.0 | |
| 20260830064217 | 74 | 0.0 | 0.0 | 0.00 | 0.32 | 0.00 | 96 | 1019.1 | |
| 20260830063217 | 74 | 0.0 | 0.0 | 0.00 | 0.32 | 0.00 | 96 | 1019.2 | |
| 20260830062217 | 74 | 0.0 | 0.0 | 0.00 | 0.32 | 0.00 | 96 | 1019.2 | |
| 20260830061217 | 74 | 0.0 | 0.0 | 0.00 | 0.32 | 0.00 | 96 | 1019.4 | |
| 20260830060217 | 74 | 0.0 | 0.0 | 0.00 | 0.32 | 0.00 | 96 | 1019.5 | |
| 20260830055217 | 74 | 0.0 | 0.0 | 0.00 | 0.32 | 0.00 | 96 | 1019.7 | |
| 20260830054237 | 74 | 0.0 | 0.0 | 0.00 | 0.32 | 0.00 | 96 | 1019.8 | |
| 20260830053217 | 74 | 0.0 | 0.0 | 0.00 | 0.32 | 0.00 | 96 | 1019.7 | |
| 20260830052217 | 74 | 0.0 | 0.0 | 0.00 | 0.32 | 0.00 | 96 | 1019.7 | |
| 20260830051238 | 74 | 0.0 | 0.0 | 0.00 | 0.32 | 0.00 | 96 | 1019.8 | |
| 20260830050217 | 74 | 0.0 | 0.0 | 0.00 | 0.32 | 0.00 | 96 | 1020.0 | |
| 20260830045217 | 74 | 0.0 | 0.0 | 0.00 | 0.33 | 0.00 | 96 | 1020.0 | |
| 20260830044217 | 74 | 0.0 | 0.0 | 0.00 | 0.33 | 0.00 | 96 | 1020.1 | |
| 20260830043217 | 74 | 0.0 | 0.0 | 0.00 | 0.33 | 0.00 | 96 | 1020.2 | |
| 20260830042237 | 74 | 0.0 | 0.0 | 0.00 | 0.33 | 0.00 | 96 | 1020.2 | |
| 20260830041218 | 74 | 0.0 | 0.0 | 0.00 | 0.33 | 0.00 | 96 | 1020.3 | |
| 20260830040334 | 74 | 0.0 | 0.0 | 0.00 | 0.33 | 0.00 | 96 | 1020.5 | |
| 20260830035617 | 74 | 0.0 | 0.0 | 0.00 | 0.33 | 0.33 | 96 | 1020.3 | |
| 20260830034618 | 75 | 0.0 | 0.0 | 0.00 | 0.33 | 0.33 | 96 | 1020.4 | |
| 20260830033620 | 75 | 0.0 | 0.0 | 0.00 | 0.33 | 0.33 | 96 | 1020.6 | |
| 20260830032618 | 75 | 0.0 | 0.0 | 0.00 | 0.33 | 0.33 | 95 | 1020.7 | |
| 20260830031618 | 75 | 0.0 | 0.0 | 0.00 | 0.33 | 0.33 | 95 | 1020.6 | |
| 20260830030638 | 75 | 0.0 | 0.0 | 0.00 | 0.33 | 0.33 | 95 | 1020.8 | |
| 20260830025619 | 75 | 0.0 | 0.0 | 0.00 | 0.33 | 0.33 | 95 | 1020.9 | |
| 20260830024617 | 75 | 0.0 | 0.0 | 0.00 | 0.33 | 0.33 | 95 | 1021.0 | |
| 20260830023618 | 76 | 0.0 | 0.0 | 0.00 | 0.33 | 0.33 | 95 | 1020.9 | |
| 20260830022618 | 76 | 0.0 | 0.0 | 0.00 | 0.33 | 0.33 | 95 | 1021.0 | |
| 20260830021617 | 76 | 0.0 | 0.0 | 0.00 | 0.33 | 0.33 | 95 | 1020.9 | |
| 20260830020616 | 76 | 0.0 | 0.0 | 0.00 | 0.33 | 0.33 | 95 | 1020.8 | |
| 20260830015617 | 76 | 0.0 | 0.0 | 0.00 | 0.33 | 0.33 | 95 | 1020.7 | |
| 20260830014617 | 76 | 0.0 | 0.0 | 0.00 | 0.34 | 0.33 | 95 | 1020.6 | |
| 20260830013617 | 76 | 0.0 | 0.0 | 0.00 | 0.34 | 0.33 | 95 | 1020.5 |